EDT,Max TemperatureF,Mean TemperatureF,Min TemperatureF,Max Dew PointF,MeanDew PointF,Min DewpointF,Max Humidity, Mean Humidity, Min Humidity, Max Sea Level PressureIn, Mean Sea Level PressureIn, Min Sea Level PressureIn, Max VisibilityMiles, Mean VisibilityMiles, Min VisibilityMiles, Max Wind SpeedMPH, Mean Wind SpeedMPH, Max Gust SpeedMPH,PrecipitationIn, CloudCover, Events, WindDirDegrees
2013-4-1,81,68,55,64,58,49,93,65,36,30.06,29.99,29.93,10,10,7,20,8,24,0.00,3,,253
2013-4-2,80,64,47,56,49,44,89,60,30,30.15,30.10,30.06,10,10,9,16,4,20,0.00,0,,126
2013-4-3,64,60,56,61,56,51,93,83,72,30.09,30.01,29.85,10,8,3,32,5,38,0.16,5,Rain,33
2013-4-4,73,68,63,64,62,60,93,83,73,29.97,29.91,29.86,10,8,1,10,5,,T,8,Rain,319
2013-4-5,63,54,45,59,53,45,93,78,62,30.12,29.96,29.85,10,10,5,15,6,22,T,7,Rain,306
2013-4-6,74,58,42,53,47,40,96,69,41,30.21,30.15,30.12,10,10,10,15,3,18,0.00,0,,178
2013-4-7,76,64,51,60,55,49,93,74,54,30.20,30.15,30.11,10,10,10,22,5,26,0.00,2,,129
2013-4-8,78,66,54,65,59,53,93,77,60,30.17,30.11,30.07,10,9,5,20,5,24,0.00,0,,125
2013-4-9,81,70,59,62,59,56,90,70,49,30.18,30.13,30.07,10,10,10,20,5,28,0.00,0,,128
2013-4-10,82,71,59,65,61,57,97,74,50,30.13,30.06,29.98,10,10,9,20,6,25,0.00,0,,125
2013-4-11,79,71,63,72,69,61,93,84,74,29.96,29.86,29.73,10,8,2,26,11,32,0.68,7,Rain-Thunderstorm,134
2013-4-12,77,67,56,72,62,46,97,67,36,29.98,29.83,29.72,10,9,5,21,11,29,0.02,5,Rain-Thunderstorm,277
2013-4-13,82,66,50,61,50,42,89,59,28,30.07,30.01,29.94,10,10,10,14,4,20,0.00,0,,360
2013-4-14,67,64,60,62,58,50,94,85,56,30.00,29.91,29.83,10,8,2,14,5,28,0.87,5,Rain-Thunderstorm,57
2013-4-15,81,70,58,68,62,57,93,80,67,30.11,30.00,29.90,10,10,10,10,4,16,0.00,6,,89
2013-4-16,87,76,65,70,67,63,100,76,51,30.17,30.13,30.09,10,10,7,15,4,20,0.00,1,,100
2013-4-17,85,76,66,68,66,64,97,76,55,30.19,30.14,30.09,10,10,7,12,4,28,0.00,1,,118
2013-4-18,82,73,64,70,66,62,93,76,58,30.09,30.02,29.95,10,10,9,21,7,26,0.00,3,,127
2013-4-19,79,64,49,73,61,45,94,84,73,30.15,29.98,29.90,10,8,2,28,12,31,0.42,8,Rain,271
2013-4-20,69,58,46,49,42,36,93,63,32,30.25,30.18,30.12,10,10,10,23,7,29,0.00,0,,348
2013-4-21,78,62,46,52,45,41,86,58,29,30.23,30.19,30.14,10,10,10,18,7,24,0.00,1,,22
2013-4-22,73,66,59,58,57,55,84,73,61,30.19,30.14,30.09,10,10,10,15,4,20,0.00,7,,37
2013-4-23,78,68,58,62,57,52,97,73,49,30.19,30.14,30.10,10,10,9,15,4,21,0.00,3,,125
2013-4-24,78,68,57,68,61,55,100,85,69,30.19,30.12,30.06,10,7,0,16,3,18,0.00,6,Fog,131
2013-4-25,83,72,61,68,64,53,97,72,47,30.28,30.20,30.11,10,8,0,12,4,24,0.17,6,Fog-Rain,335
2013-4-26,86,71,56,59,48,39,90,57,23,30.33,30.27,30.22,10,10,10,13,5,31,0.00,0,,11
2013-4-27,83,71,59,67,61,56,93,70,46,30.27,30.21,30.14,10,10,5,20,6,24,0.00,1,,128
2013-4-28,78,70,62,68,65,61,100,85,69,30.13,30.06,29.98,10,7,0,16,4,22,T,6,Fog,127
2013-4-29,78,71,63,70,66,63,100,85,69,30.03,29.98,29.93,10,7,1,28,4,79,0.77,6,Rain,70
2013-4-30,83,72,61,68,62,59,97,76,54,30.02,29.97,29.93,10,7,0,13,2,16,0.00,4,Fog-Thunderstorm,54